Location: Chacón
(10.5789°N, 66.9317°W)
Time: 21:41:17
(UTC+00:00)

Sakura Rocket - Pass Details

Date: 15 August 2024
Orbit: 475 x 1710 km, 28.7° (Epoch: 09 September)

Event Time Altitude Azimuth Distance (km) Brightness Sun altitude
Exits shadow 09:33:57 - 290° (WNW) 3,095 6.1 -11.3°
Reaches altitude 10° 09:34:42 10° 289° (WNW) 2,852 6.0 -11.1°
Maximum altitude 09:41:50 64° 209° (SSW) 1,421 4.7 -9.4°
Drops below altitude 10° 09:51:25 10° 130° (SE) 3,757 7.6 -7.2°
Sets 09:54:58 0° 127° (SE) 4,852 8.2 -6.3°
